Hinsdale, NY

3:10 PM EST on February 20, 2017 (GMT -0500)
Cattaraugus County-Olean

Weather History for KOLE - February, 2013

Change the Weather History Date:

Thursday, February 14, 2013

  Actual Average (KBFD) Record (KBFD)
Temperature  
Mean Temperature 26 °F -  
Max Temperature 32 °F 29 °F 49 °F (1967)
Min Temperature 19 °F 13 °F -21 °F (1979)
Degree Days  
Heating Degree Days 40    
Moisture  
Dew Point 25 °F    
Average Humidity 92    
Maximum Humidity 100    
Minimum Humidity 69    
Precipitation  
Precipitation 0.00 in - - ()
Sea Level Pressure  
Sea Level Pressure 29.78 in    
Wind  
Wind Speed 4 mph (SW)    
Max Wind Speed 10 mph    
Max Gust Speed 17 mph    
Visibility 6 miles    
Events Snow    
Averages and records for this station are not official NWS values.
T = Trace of Precipitation, MM = Missing Value Source: NWS Daily Summary

Daily Weather History Graph

Daily Weather History Graph

Search for Another Location

Airport or City:

Trip Planner

Search our weather history database for the weather conditions in past years. The results will help you decide how hot, cold, wet, or windy it might be!

Date:

Astronomy

Feb. 14, 2013 Rise Set
Actual Time 7:10 AM EST 5:45 PM EST
Civil Twilight 6:42 AM EST 6:13 PM EST
Nautical Twilight 6:09 AM EST 6:46 PM EST
Astronomical Twilight 5:36 AM EST 7:19 PM EST
Moon 9:05 AM EST (2/14) 10:53 PM EST (2/14)
Length of Visible Light 11h 31m
Length of Day
10h 34m
Waxing Crescent, 21% of the Moon is Illuminated
Feb 14
Waxing Crescent
Feb 17
First Quarter
Feb 25
Full
Mar 4
Last Quarter
Mar 11
New

Hourly Weather History & Observations

Time (EST) Temp. Windchill Dew Point Humidity Pressure Visibility Wind Dir Wind Speed Gust Speed Precip Events Conditions
12:15 AM 21.2 °F - 19.4 °F 93% 29.71 in 10.0 mi Calm Calm - N/A   Clear
12:35 AM 21.2 °F - 19.4 °F 93% 29.72 in 10.0 mi Calm Calm - N/A   Clear
12:55 AM 19.4 °F - 19.4 °F 100% 29.73 in 7.0 mi Calm Calm - N/A   Clear
1:15 AM 19.4 °F - 19.4 °F 100% 29.74 in 7.0 mi Calm Calm - N/A   Scattered Clouds
1:35 AM 19.4 °F 14.3 °F 19.4 °F 100% 29.74 in 5.0 mi NW 3.5 mph - N/A   Overcast
1:55 AM 21.2 °F 13.6 °F 19.4 °F 93% 29.75 in 3.0 mi WNW 5.8 mph - N/A   Overcast
2:15 AM 21.2 °F 14.9 °F 19.4 °F 93% 29.75 in 4.0 mi WNW 4.6 mph - N/A   Overcast
2:35 AM 21.2 °F - 21.2 °F 100% 29.75 in 5.0 mi Calm Calm - N/A   Overcast
2:55 AM 21.2 °F - 21.2 °F 100% 29.76 in 5.0 mi Calm Calm - N/A   Overcast
3:15 AM 21.2 °F 16.4 °F 21.2 °F 100% 29.76 in 7.0 mi WNW 3.5 mph - N/A   Overcast
3:35 AM 21.2 °F - 21.2 °F 100% 29.76 in 7.0 mi Calm Calm - N/A   Overcast
3:55 AM 21.2 °F - 21.2 °F 100% 29.76 in 7.0 mi Calm Calm - N/A   Overcast
4:15 AM 21.2 °F - 19.4 °F 93% 29.77 in 7.0 mi Calm Calm - N/A   Overcast
4:35 AM 21.2 °F - 19.4 °F 93% 29.78 in 7.0 mi Calm Calm - N/A   Overcast
4:55 AM 21.2 °F - 19.4 °F 93% 29.78 in 5.0 mi Calm Calm - N/A   Overcast
5:15 AM 21.2 °F 16.4 °F 19.4 °F 93% 29.78 in 5.0 mi West 3.5 mph - N/A   Overcast
5:35 AM 21.2 °F - 19.4 °F 93% 29.79 in 5.0 mi Calm Calm - N/A   Overcast
5:55 AM 21.2 °F - 19.4 °F 93% 29.79 in 5.0 mi Calm Calm - N/A   Overcast
6:15 AM 21.2 °F 14.9 °F 19.4 °F 93% 29.80 in 7.0 mi WSW 4.6 mph - N/A   Overcast
6:35 AM 21.2 °F - 19.4 °F 93% 29.81 in 10.0 mi Calm Calm - N/A   Overcast
6:55 AM 21.2 °F 14.9 °F 19.4 °F 93% 29.81 in 10.0 mi SW 4.6 mph - N/A   Overcast
7:15 AM 21.2 °F 12.6 °F 19.4 °F 93% 29.82 in 10.0 mi SW 6.9 mph - N/A   Overcast
7:35 AM 21.2 °F 10.1 °F 19.4 °F 93% 29.83 in 10.0 mi SSW 10.4 mph - N/A   Overcast
7:55 AM 21.2 °F 10.1 °F 19.4 °F 93% 29.83 in 10.0 mi SSW 10.4 mph - N/A   Overcast
8:15 AM 21.2 °F 11.7 °F 19.4 °F 93% 29.84 in 10.0 mi SSW 8.1 mph - N/A   Overcast
8:35 AM 23.0 °F 12.4 °F 19.4 °F 86% 29.83 in 10.0 mi SSW 10.4 mph - N/A   Scattered Clouds
8:55 AM 23.0 °F 13.9 °F 19.4 °F 86% 29.83 in 10.0 mi SSW 8.1 mph - N/A   Mostly Cloudy
9:15 AM 24.8 °F 16.1 °F 19.4 °F 80% 29.83 in 10.0 mi SSW 8.1 mph - N/A   Mostly Cloudy
9:35 AM 26.6 °F 19.1 °F 19.4 °F 74% 29.83 in 10.0 mi SSW 6.9 mph - N/A   Scattered Clouds
10:15 AM 28.4 °F 21.2 °F 21.2 °F 74% 29.82 in 10.0 mi SSW 6.9 mph - N/A   Clear
10:55 AM 30.2 °F 22.6 °F 21.2 °F 69% 29.82 in 10.0 mi SSW 8.1 mph - N/A   Clear
11:15 AM 32.0 °F 25.6 °F 23.0 °F 69% 29.82 in 10.0 mi SSW 6.9 mph - N/A   Clear
11:35 AM 32.0 °F 24.2 °F 23.0 °F 69% 29.81 in 10.0 mi SSW 9.2 mph - N/A   Clear
11:55 AM 32.0 °F 24.2 °F 24.8 °F 75% 29.80 in 10.0 mi SSW 9.2 mph - N/A   Scattered Clouds
12:15 PM 32.0 °F 26.4 °F 24.8 °F 75% 29.80 in 10.0 mi SSW 5.8 mph - N/A   Mostly Cloudy
12:35 PM 32.0 °F 23.6 °F 24.8 °F 75% 29.79 in 10.0 mi SSW 10.4 mph 17.3 mph N/A   Overcast
12:55 PM 32.0 °F 24.2 °F 26.6 °F 80% 29.79 in 10.0 mi SSW 9.2 mph - N/A   Overcast
1:15 PM 32.0 °F 24.2 °F 26.6 °F 80% 29.78 in 10.0 mi SSW 9.2 mph - N/A   Overcast
1:35 PM 32.0 °F 24.8 °F 26.6 °F 80% 29.78 in 10.0 mi SSW 8.1 mph - N/A   Overcast
1:55 PM 32.0 °F 24.2 °F 26.6 °F 80% 29.78 in 7.0 mi SSW 9.2 mph - N/A   Overcast
2:15 PM 32.0 °F 24.8 °F 28.4 °F 87% 29.78 in 2.5 mi SSW 8.1 mph - N/A Snow Light Snow
2:35 PM 32.0 °F 26.4 °F 30.2 °F 93% 29.78 in 1.2 mi SSW 5.8 mph - N/A Snow Light Snow
2:55 PM 32.0 °F 25.6 °F 30.2 °F 93% 29.78 in 1.8 mi SSW 6.9 mph - N/A Snow Light Snow
3:15 PM 32.0 °F 24.8 °F 30.2 °F 93% 29.78 in 1.8 mi SSW 8.1 mph - N/A Snow Light Snow
3:35 PM 32.0 °F 24.8 °F 30.2 °F 93% 29.78 in 1.5 mi SSW 8.1 mph - N/A Snow Light Snow
3:55 PM 32.0 °F 24.8 °F 30.2 °F 93% 29.77 in 1.8 mi SSW 8.1 mph - N/A Snow Light Snow
4:15 PM 32.0 °F 24.8 °F 30.2 °F 93% 29.77 in 1.8 mi SSW 8.1 mph - N/A Snow Light Snow
4:35 PM 32.0 °F 24.8 °F 30.2 °F 93% 29.76 in 2.0 mi SSW 8.1 mph - N/A Snow Light Snow
4:55 PM 32.0 °F 23.6 °F 30.2 °F 93% 29.76 in 1.8 mi SSW 10.4 mph 16.1 mph N/A Snow Light Snow
5:15 PM 32.0 °F 24.8 °F 30.2 °F 93% 29.76 in 1.2 mi SSW 8.1 mph - N/A Snow Light Snow
5:35 PM 32.0 °F 24.2 °F 32.0 °F 100% 29.76 in 1.0 mi SSW 9.2 mph - N/A Snow Light Snow
5:55 PM 32.0 °F 23.6 °F 32.0 °F 100% 29.77 in 1.5 mi SSW 10.4 mph - N/A Snow Light Snow
6:15 PM 32.0 °F 24.2 °F 32.0 °F 100% 29.77 in 1.5 mi SSW 9.2 mph - N/A Snow Light Snow
6:35 PM 32.0 °F 23.6 °F 32.0 °F 100% 29.77 in 1.8 mi SSW 10.4 mph - N/A Snow Light Snow
6:55 PM 32.0 °F 24.2 °F 32.0 °F 100% 29.78 in 2.0 mi SSW 9.2 mph - N/A Snow Light Snow
7:15 PM 32.0 °F 24.2 °F 32.0 °F 100% 29.78 in 2.0 mi SSW 9.2 mph - N/A Snow Light Snow
7:35 PM 32.0 °F 24.8 °F 32.0 °F 100% 29.78 in 2.0 mi SSW 8.1 mph - N/A Snow Light Snow
7:55 PM 32.0 °F 23.6 °F 32.0 °F 100% 29.77 in 1.2 mi SSW 10.4 mph - N/A Snow Light Snow
8:15 PM 32.0 °F 23.6 °F 32.0 °F 100% 29.77 in 0.5 mi SSW 10.4 mph - N/A Snow Snow
8:35 PM 32.0 °F 24.2 °F 32.0 °F 100% 29.77 in 0.2 mi SSW 9.2 mph - N/A Snow Snow
8:55 PM 32.0 °F 23.6 °F 32.0 °F 100% 29.78 in 1.0 mi SSW 10.4 mph - N/A Snow Light Snow
9:15 PM 32.0 °F 24.2 °F 32.0 °F 100% 29.78 in 1.8 mi SSW 9.2 mph 17.3 mph N/A Snow Light Snow
9:35 PM 32.0 °F 24.8 °F 32.0 °F 100% 29.78 in 4.0 mi SW 8.1 mph - N/A Snow Light Snow
9:55 PM 32.0 °F 24.8 °F 32.0 °F 100% 29.77 in 4.0 mi SSW 8.1 mph - N/A Snow Light Snow
10:15 PM 32.0 °F 24.8 °F 32.0 °F 100% 29.75 in 3.0 mi SSW 8.1 mph - N/A Snow Light Snow
10:35 PM 32.0 °F 23.6 °F 32.0 °F 100% 29.75 in 5.0 mi SSW 10.4 mph 16.1 mph N/A Snow Light Snow
10:55 PM 32.0 °F 24.8 °F 32.0 °F 100% 29.75 in 5.0 mi SSW 8.1 mph - N/A Snow Light Snow
11:15 PM 32.0 °F - 32.0 °F 100% 29.75 in 5.0 mi Calm Calm - N/A Snow Light Snow
11:35 PM 32.0 °F 24.8 °F 32.0 °F 100% 29.75 in 2.5 mi SW 8.1 mph - N/A Snow Light Snow
11:55 PM 32.0 °F 25.6 °F 32.0 °F 100% 29.75 in 2.5 mi SW 6.9 mph - N/A Snow Light Snow